Location: Mentone
(34.5413°N, 85.5351°W)
Time: 14:13:38
(UTC-05:00)

Centaur AC-72 - Visible Passes

Search period start: 30 July 2014 00:00
Search period end: 09 August 2014 00:00
Orbit: 1077 x 35279 km, 19.1° (Epoch: 29 July)

Date Brightness Start Highest point End Pass type
(mag) Time Alt. Az. Time Alt. Az. Time Alt. Az.
30 Jul 8.0 00:00:00 59° ESE 02:41:51 68° SSE 05:08:03 10° ESE visible
30 Jul 7.0 19:00:21 10° E 00:06:23 35° E 01:57:56 10° E visible
01 Aug 6.7 01:05:20 10° WSW 03:05:27 37° WSW 10:27:52 10° SW visible
01 Aug 7.2 21:57:31 10° SW 01:07:54 68° SSW 07:46:00 10° SSE visible
02 Aug 7.0 19:05:27 10° S 02:25:35 68° SE 04:51:52 10° ESE visible
03 Aug 7.1 18:52:03 10° E 23:49:53 34° E 01:40:45 10° E visible
05 Aug 6.7 00:48:17 10° WSW 02:49:13 39° WSW 10:11:58 10° SW visible
05 Aug 7.2 21:41:19 10° SW 00:54:24 69° SSW 07:30:01 10° SSE visible
06 Aug 7.0 18:49:26 10° S 02:09:19 67° SE 04:35:40 10° ESE visible
07 Aug 7.1 18:44:11 10° E 23:33:27 33° E 01:23:28 10° E visible
